Powrót do katalogu

THOR ABLESTAR DEB

AktywnyLEO
NORAD 5748·DEBRIS·🇺🇸 United States

Wystrzelony Jun 29, 1961 z Cape Canaveral Space Force Station

Loading…

Następne Przeloty (najbliższe 24 godziny)

TLE

ŚwieżeSource: Space-Track

Epoka: Sep 14, 2026, 09:00 UTC

1 05748U 61015JX  26257.37512238  .00000677  00000-0  83171-3 0  9993
2 05748  67.5539 238.5162 0113859 336.7625 175.1003 13.68344838166858

Śledź THOR ABLESTAR DEB w czasie rzeczywistym z AllMySat

Download on the App Store